owner,sensor,date,latitude,longitude,vertical_datum,sea_water_practical_salinity,qcFlag 
SCCF RECON,ioos:station:SCCF:16:1,2009-02-01T00:00:00Z,26.4345,-81.9647,2.166,34.24,1111122 
SCCF RECON,ioos:station:SCCF:16:1,2009-02-01T01:00:00Z,26.4345,-81.9647,2.054,33.71,1111122 
SCCF RECON,ioos:station:SCCF:16:1,2009-02-01T02:00:00Z,26.4345,-81.9647,1.99,33.44,1111122 
SCCF RECON,ioos:station:SCCF:16:1,2009-02-01T03:00:00Z,26.4345,-81.9647,1.945,32.85,1111122 
SCCF RECON,ioos:station:SCCF:16:1,2009-02-01T04:00:00Z,26.4345,-81.9647,1.997,32.37,1111122 
SCCF RECON,ioos:station:SCCF:16:1,2009-02-01T05:00:00Z,26.4345,-81.9647,2.093,32.29,1111122 
SCCF RECON,ioos:station:SCCF:16:1,2009-02-01T06:00:00Z,26.4345,-81.9647,2.23,32.8,1111122 
SCCF RECON,ioos:station:SCCF:16:1,2009-02-01T07:00:00Z,26.4345,-81.9647,2.284,33.0,1111122 
SCCF RECON,ioos:station:SCCF:16:1,2009-02-01T08:00:00Z,26.4345,-81.9647,2.322,33.53,1111122 
SCCF RECON,ioos:station:SCCF:16:1,2009-02-01T09:00:00Z,26.4345,-81.9647,2.353,33.94,1111122 
SCCF RECON,ioos:station:SCCF:16:1,2009-02-01T10:00:00Z,26.4345,-81.9647,2.361,34.22,1111122 
SCCF RECON,ioos:station:SCCF:16:1,2009-02-01T11:00:00Z,26.4345,-81.9647,2.277,34.32,1111122 
SCCF RECON,ioos:station:SCCF:16:1,2009-02-01T12:00:00Z,26.4345,-81.9647,2.183,34.24,1111122 
SCCF RECON,ioos:station:SCCF:16:1,2009-02-01T13:00:00Z,26.4345,-81.9647,2.13,33.97,1111122 
SCCF RECON,ioos:station:SCCF:16:1,2009-02-01T14:00:00Z,26.4345,-81.9647,2.081,33.66,1111122 
SCCF RECON,ioos:station:SCCF:16:1,2009-02-01T15:00:00Z,26.4345,-81.9647,2.091,33.22,1111122 
SCCF RECON,ioos:station:SCCF:16:1,2009-02-01T16:00:00Z,26.4345,-81.9647,2.212,33.19,1111122 
SCCF RECON,ioos:station:SCCF:16:1,2009-02-01T17:00:00Z,26.4345,-81.9647,2.328,33.55,1111122 
SCCF RECON,ioos:station:SCCF:16:1,2009-02-01T18:00:00Z,26.4345,-81.9647,2.424,34.08,1111122 
SCCF RECON,ioos:station:SCCF:16:1,2009-02-01T19:00:00Z,26.4345,-81.9647,2.529,34.44,1111122 
SCCF RECON,ioos:station:SCCF:16:1,2009-02-01T20:00:00Z,26.4345,-81.9647,2.608,34.71,1111122 
SCCF RECON,ioos:station:SCCF:16:1,2009-02-01T21:00:00Z,26.4345,-81.9647,2.631,34.93,1111122 
SCCF RECON,ioos:station:SCCF:16:1,2009-02-01T22:00:00Z,26.4345,-81.9647,2.617,34.97,1111122 
SCCF RECON,ioos:station:SCCF:16:1,2009-02-01T23:00:00Z,26.4345,-81.9647,2.495,34.99,1111122 
SCCF RECON,ioos:station:SCCF:16:1,2009-02-02T00:00:00Z,26.4345,-81.9647,2.386,34.97,1111122 
SCCF RECON,ioos:station:SCCF:16:1,2009-02-02T01:00:00Z,26.4345,-81.9647,2.222,34.84,1111122 
SCCF RECON,ioos:station:SCCF:16:1,2009-02-02T02:00:00Z,26.4345,-81.9647,2.094,34.53,1111122 
SCCF RECON,ioos:station:SCCF:16:1,2009-02-02T03:00:00Z,26.4345,-81.9647,2.013,34.15,1111122 
SCCF RECON,ioos:station:SCCF:16:1,2009-02-02T04:00:00Z,26.4345,-81.9647,1.986,33.59,1111122 
SCCF RECON,ioos:station:SCCF:16:1,2009-02-02T05:00:00Z,26.4345,-81.9647,2.054,33.82,1111122 
SCCF RECON,ioos:station:SCCF:16:1,2009-02-02T06:00:00Z,26.4345,-81.9647,2.151,33.89,1111122 
SCCF RECON,ioos:station:SCCF:16:1,2009-02-02T07:00:00Z,26.4345,-81.9647,2.232,33.83,1111122 
SCCF RECON,ioos:station:SCCF:16:1,2009-02-02T08:00:00Z,26.4345,-81.9647,2.304,33.97,1111122 
SCCF RECON,ioos:station:SCCF:16:1,2009-02-02T09:00:00Z,26.4345,-81.9647,2.361,34.08,1111122 
SCCF RECON,ioos:station:SCCF:16:1,2009-02-02T10:00:00Z,26.4345,-81.9647,2.439,34.19,1111122 
SCCF RECON,ioos:station:SCCF:16:1,2009-02-02T11:00:00Z,26.4345,-81.9647,2.481,34.3,1111122 
SCCF RECON,ioos:station:SCCF:16:1,2009-02-02T12:00:00Z,26.4345,-81.9647,2.446,34.49,1111122 
SCCF RECON,ioos:station:SCCF:16:1,2009-02-02T13:00:00Z,26.4345,-81.9647,2.399,34.66,1111122 
SCCF RECON,ioos:station:SCCF:16:1,2009-02-02T14:00:00Z,26.4345,-81.9647,2.294,34.61,1111122 
SCCF RECON,ioos:station:SCCF:16:1,2009-02-02T15:00:00Z,26.4345,-81.9647,2.305,34.56,1111122 
SCCF RECON,ioos:station:SCCF:16:1,2009-02-02T16:00:00Z,26.4345,-81.9647,2.337,34.58,1111122 
SCCF RECON,ioos:station:SCCF:16:1,2009-02-02T17:00:00Z,26.4345,-81.9647,2.402,34.78,1111122 
SCCF RECON,ioos:station:SCCF:16:1,2009-02-02T18:00:00Z,26.4345,-81.9647,2.527,34.99,1111122 
SCCF RECON,ioos:station:SCCF:16:1,2009-02-02T19:00:00Z,26.4345,-81.9647,2.675,35.16,1111122 
SCCF RECON,ioos:station:SCCF:16:1,2009-02-02T20:00:00Z,26.4345,-81.9647,2.782,35.24,1111122 
SCCF RECON,ioos:station:SCCF:16:1,2009-02-02T21:00:00Z,26.4345,-81.9647,2.813,35.32,1111122 
SCCF RECON,ioos:station:SCCF:16:1,2009-02-02T22:00:00Z,26.4345,-81.9647,2.753,35.3,1111122 
SCCF RECON,ioos:station:SCCF:16:1,2009-02-02T23:00:00Z,26.4345,-81.9647,2.765,35.31,1111122 
SCCF RECON,ioos:station:SCCF:16:1,2009-02-03T00:00:00Z,26.4345,-81.9647,2.646,35.28,1111122 
SCCF RECON,ioos:station:SCCF:16:1,2009-02-03T01:00:00Z,26.4345,-81.9647,2.469,35.24,1111122 
SCCF RECON,ioos:station:SCCF:16:1,2009-02-03T02:00:00Z,26.4345,-81.9647,2.373,35.2,1111122 
SCCF RECON,ioos:station:SCCF:16:1,2009-02-03T03:00:00Z,26.4345,-81.9647,2.214,35.13,1111122 
SCCF RECON,ioos:station:SCCF:16:1,2009-02-03T04:00:00Z,26.4345,-81.9647,2.11,35.02,1111122 
SCCF RECON,ioos:station:SCCF:16:1,2009-02-03T05:00:00Z,26.4345,-81.9647,2.001,34.96,1111122 
SCCF RECON,ioos:station:SCCF:16:1,2009-02-03T06:00:00Z,26.4345,-81.9647,1.899,34.76,1111122 
SCCF RECON,ioos:station:SCCF:16:1,2009-02-03T07:00:00Z,26.4345,-81.9647,2.018,34.53,1111122 
SCCF RECON,ioos:station:SCCF:16:1,2009-02-03T08:00:00Z,26.4345,-81.9647,2.123,34.55,1111122 
SCCF RECON,ioos:station:SCCF:16:1,2009-02-03T09:00:00Z,26.4345,-81.9647,2.158,34.4,1111122 
SCCF RECON,ioos:station:SCCF:16:1,2009-02-03T10:00:00Z,26.4345,-81.9647,2.376,34.65,1111122 
SCCF RECON,ioos:station:SCCF:16:1,2009-02-03T11:00:00Z,26.4345,-81.9647,2.418,34.91,1111122 
SCCF RECON,ioos:station:SCCF:16:1,2009-02-03T12:00:00Z,26.4345,-81.9647,2.413,34.84,1111122 
SCCF RECON,ioos:station:SCCF:16:1,2009-02-03T13:00:00Z,26.4345,-81.9647,2.325,34.78,1111122 
SCCF RECON,ioos:station:SCCF:16:1,2009-02-03T14:00:00Z,26.4345,-81.9647,2.205,34.7,1111122 
SCCF RECON,ioos:station:SCCF:16:1,2009-02-03T15:00:00Z,26.4345,-81.9647,2.205,34.45,1111122 
SCCF RECON,ioos:station:SCCF:16:1,2009-02-03T16:00:00Z,26.4345,-81.9647,2.276,34.35,1111122 
SCCF RECON,ioos:station:SCCF:16:1,2009-02-03T17:00:00Z,26.4345,-81.9647,2.297,34.42,1111122 
SCCF RECON,ioos:station:SCCF:16:1,2009-02-03T18:00:00Z,26.4345,-81.9647,2.324,34.4,1111122 
SCCF RECON,ioos:station:SCCF:16:1,2009-02-03T19:00:00Z,26.4345,-81.9647,2.37,34.25,1111122 
SCCF RECON,ioos:station:SCCF:16:1,2009-02-03T20:00:00Z,26.4345,-81.9647,2.363,34.3,1111122 
SCCF RECON,ioos:station:SCCF:16:1,2009-02-03T21:00:00Z,26.4345,-81.9647,2.43,34.33,1111122 
SCCF RECON,ioos:station:SCCF:16:1,2009-02-03T22:00:00Z,26.4345,-81.9647,2.495,34.49,1111122 
SCCF RECON,ioos:station:SCCF:16:1,2009-02-03T23:00:00Z,26.4345,-81.9647,2.487,34.5,1111122 
SCCF RECON,ioos:station:SCCF:16:1,2009-02-04T00:00:00Z,26.4345,-81.9647,2.441,34.47,1111122 
SCCF RECON,ioos:station:SCCF:16:1,2009-02-04T01:00:00Z,26.4345,-81.9647,2.42,34.34,1111122 
SCCF RECON,ioos:station:SCCF:16:1,2009-02-04T02:00:00Z,26.4345,-81.9647,2.29,34.24,1111122 
SCCF RECON,ioos:station:SCCF:16:1,2009-02-04T03:00:00Z,26.4345,-81.9647,2.153,33.28,1111122 
SCCF RECON,ioos:station:SCCF:16:1,2009-02-04T04:00:00Z,26.4345,-81.9647,2.047,32.67,1111122 
SCCF RECON,ioos:station:SCCF:16:1,2009-02-04T05:00:00Z,26.4345,-81.9647,1.955,33.08,1111122 
SCCF RECON,ioos:station:SCCF:16:1,2009-02-04T06:00:00Z,26.4345,-81.9647,1.875,33.08,1111122 
SCCF RECON,ioos:station:SCCF:16:1,2009-02-04T07:00:00Z,26.4345,-81.9647,1.864,33.33,1111122 
SCCF RECON,ioos:station:SCCF:16:1,2009-02-04T08:00:00Z,26.4345,-81.9647,1.901,33.12,1111122 
SCCF RECON,ioos:station:SCCF:16:1,2009-02-04T09:00:00Z,26.4345,-81.9647,2.0,33.44,1111122 
SCCF RECON,ioos:station:SCCF:16:1,2009-02-04T10:00:00Z,26.4345,-81.9647,2.133,33.68,1111122 
SCCF RECON,ioos:station:SCCF:16:1,2009-02-04T11:00:00Z,26.4345,-81.9647,2.263,33.58,1111122 
SCCF RECON,ioos:station:SCCF:16:1,2009-02-04T12:00:00Z,26.4345,-81.9647,2.366,33.45,1111122 
SCCF RECON,ioos:station:SCCF:16:1,2009-02-04T13:00:00Z,26.4345,-81.9647,2.449,33.63,1111122 
SCCF RECON,ioos:station:SCCF:16:1,2009-02-04T14:00:00Z,26.4345,-81.9647,2.451,34.93,1111122 
SCCF RECON,ioos:station:SCCF:16:1,2009-02-04T15:00:00Z,26.4345,-81.9647,2.343,35.14,1111122 
SCCF RECON,ioos:station:SCCF:16:1,2009-02-04T16:00:00Z,26.4345,-81.9647,2.294,33.88,1111122 
SCCF RECON,ioos:station:SCCF:16:1,2009-02-04T17:00:00Z,26.4345,-81.9647,2.313,33.65,1111122 
SCCF RECON,ioos:station:SCCF:16:1,2009-02-04T18:00:00Z,26.4345,-81.9647,2.384,33.8,1111122 
SCCF RECON,ioos:station:SCCF:16:1,2009-02-04T19:00:00Z,26.4345,-81.9647,2.425,33.67,1111122 
SCCF RECON,ioos:station:SCCF:16:1,2009-02-04T20:00:00Z,26.4345,-81.9647,2.442,33.74,1111122 
SCCF RECON,ioos:station:SCCF:16:1,2009-02-04T21:00:00Z,26.4345,-81.9647,2.473,33.72,1111122 
SCCF RECON,ioos:station:SCCF:16:1,2009-02-04T22:00:00Z,26.4345,-81.9647,2.486,33.72,1111122 
SCCF RECON,ioos:station:SCCF:16:1,2009-02-04T23:00:00Z,26.4345,-81.9647,2.521,33.79,1111122 
SCCF RECON,ioos:station:SCCF:16:1,2009-02-05T00:00:00Z,26.4345,-81.9647,2.568,33.85,1111122 
SCCF RECON,ioos:station:SCCF:16:1,2009-02-05T01:00:00Z,26.4345,-81.9647,2.56,33.87,1111122 
SCCF RECON,ioos:station:SCCF:16:1,2009-02-05T02:00:00Z,26.4345,-81.9647,2.434,33.95,1111122 
SCCF RECON,ioos:station:SCCF:16:1,2009-02-05T03:00:00Z,26.4345,-81.9647,2.294,33.95,1111122 
SCCF RECON,ioos:station:SCCF:16:1,2009-02-05T04:00:00Z,26.4345,-81.9647,2.145,33.66,1111122 
SCCF RECON,ioos:station:SCCF:16:1,2009-02-05T05:00:00Z,26.4345,-81.9647,1.935,33.34,1111122 
SCCF RECON,ioos:station:SCCF:16:1,2009-02-05T06:00:00Z,26.4345,-81.9647,1.796,34.78,1111122 
SCCF RECON,ioos:station:SCCF:16:1,2009-02-05T07:00:00Z,26.4345,-81.9647,1.607,33.89,1111122 
SCCF RECON,ioos:station:SCCF:16:1,2009-02-05T08:00:00Z,26.4345,-81.9647,1.54,34.31,1111122 
SCCF RECON,ioos:station:SCCF:16:1,2009-02-05T09:00:00Z,26.4345,-81.9647,1.56,34.13,1111122 
SCCF RECON,ioos:station:SCCF:16:1,2009-02-05T10:00:00Z,26.4345,-81.9647,1.659,33.51,1111122 
SCCF RECON,ioos:station:SCCF:16:1,2009-02-05T11:00:00Z,26.4345,-81.9647,1.829,33.52,1111122 
SCCF RECON,ioos:station:SCCF:16:1,2009-02-05T12:00:00Z,26.4345,-81.9647,1.951,32.67,1111122 
SCCF RECON,ioos:station:SCCF:16:1,2009-02-05T13:00:00Z,26.4345,-81.9647,2.034,32.41,1111122 
SCCF RECON,ioos:station:SCCF:16:1,2009-02-05T14:00:00Z,26.4345,-81.9647,2.111,32.88,1111122 
SCCF RECON,ioos:station:SCCF:16:1,2009-02-05T15:00:00Z,26.4345,-81.9647,2.207,33.27,1111122 
SCCF RECON,ioos:station:SCCF:16:1,2009-02-05T16:00:00Z,26.4345,-81.9647,2.257,33.53,1111122 
SCCF RECON,ioos:station:SCCF:16:1,2009-02-05T17:00:00Z,26.4345,-81.9647,2.242,33.72,1111122 
SCCF RECON,ioos:station:SCCF:16:1,2009-02-05T18:00:00Z,26.4345,-81.9647,2.244,33.67,1111122 
SCCF RECON,ioos:station:SCCF:16:1,2009-02-05T19:00:00Z,26.4345,-81.9647,2.237,33.81,1111122 
SCCF RECON,ioos:station:SCCF:16:1,2009-02-05T20:00:00Z,26.4345,-81.9647,2.33,34.49,1111122 
SCCF RECON,ioos:station:SCCF:16:1,2009-02-05T21:00:00Z,26.4345,-81.9647,2.42,34.46,1111122 
SCCF RECON,ioos:station:SCCF:16:1,2009-02-05T22:00:00Z,26.4345,-81.9647,2.507,34.42,1111122 
SCCF RECON,ioos:station:SCCF:16:1,2009-02-05T23:00:00Z,26.4345,-81.9647,2.583,34.78,1111122 
SCCF RECON,ioos:station:SCCF:16:1,2009-02-06T00:00:00Z,26.4345,-81.9647,2.667,35.1,1111122 
SCCF RECON,ioos:station:SCCF:16:1,2009-02-06T01:00:00Z,26.4345,-81.9647,2.699,35.47,1111122 
SCCF RECON,ioos:station:SCCF:16:1,2009-02-06T02:00:00Z,26.4345,-81.9647,2.65,35.41,1111122 
SCCF RECON,ioos:station:SCCF:16:1,2009-02-06T03:00:00Z,26.4345,-81.9647,2.558,35.25,1111122 
SCCF RECON,ioos:station:SCCF:16:1,2009-02-06T04:00:00Z,26.4345,-81.9647,2.389,34.74,1111122 
SCCF RECON,ioos:station:SCCF:16:1,2009-02-06T05:00:00Z,26.4345,-81.9647,2.211,34.66,1111122 
SCCF RECON,ioos:station:SCCF:16:1,2009-02-06T06:00:00Z,26.4345,-81.9647,2.024,34.26,1111122 
SCCF RECON,ioos:station:SCCF:16:1,2009-02-06T07:00:00Z,26.4345,-81.9647,1.811,33.78,1111122 
SCCF RECON,ioos:station:SCCF:16:1,2009-02-06T08:00:00Z,26.4345,-81.9647,1.698,34.0,1111122 
SCCF RECON,ioos:station:SCCF:16:1,2009-02-06T09:00:00Z,26.4345,-81.9647,1.629,33.07,1111122 
SCCF RECON,ioos:station:SCCF:16:1,2009-02-06T10:00:00Z,26.4345,-81.9647,1.685,33.06,1111122 
SCCF RECON,ioos:station:SCCF:16:1,2009-02-06T11:00:00Z,26.4345,-81.9647,1.864,32.83,1111122 
SCCF RECON,ioos:station:SCCF:16:1,2009-02-06T12:00:00Z,26.4345,-81.9647,2.027,32.89,1111122 
SCCF RECON,ioos:station:SCCF:16:1,2009-02-06T13:00:00Z,26.4345,-81.9647,2.186,33.0,1111122 
SCCF RECON,ioos:station:SCCF:16:1,2009-02-06T14:00:00Z,26.4345,-81.9647,2.304,33.2,1111122 
SCCF RECON,ioos:station:SCCF:16:1,2009-02-06T15:00:00Z,26.4345,-81.9647,2.427,33.92,1111122 
SCCF RECON,ioos:station:SCCF:16:1,2009-02-06T16:00:00Z,26.4345,-81.9647,2.49,34.4,1111122 
SCCF RECON,ioos:station:SCCF:16:1,2009-02-06T17:00:00Z,26.4345,-81.9647,2.441,34.45,1111122 
SCCF RECON,ioos:station:SCCF:16:1,2009-02-06T18:00:00Z,26.4345,-81.9647,2.397,34.63,1111122 
SCCF RECON,ioos:station:SCCF:16:1,2009-02-06T19:00:00Z,26.4345,-81.9647,2.359,34.43,1111122 
SCCF RECON,ioos:station:SCCF:16:1,2009-02-06T20:00:00Z,26.4345,-81.9647,2.372,34.45,1111122 
SCCF RECON,ioos:station:SCCF:16:1,2009-02-06T21:00:00Z,26.4345,-81.9647,2.432,34.55,1111122 
SCCF RECON,ioos:station:SCCF:16:1,2009-02-06T22:00:00Z,26.4345,-81.9647,2.519,34.66,1111122 
SCCF RECON,ioos:station:SCCF:16:1,2009-02-06T23:00:00Z,26.4345,-81.9647,2.625,34.73,1111122 
SCCF RECON,ioos:station:SCCF:16:1,2009-02-07T00:00:00Z,26.4345,-81.9647,2.716,34.99,1111122 
SCCF RECON,ioos:station:SCCF:16:1,2009-02-07T01:00:00Z,26.4345,-81.9647,2.756,35.11,1111122 
SCCF RECON,ioos:station:SCCF:16:1,2009-02-07T02:00:00Z,26.4345,-81.9647,2.77,35.07,1111122 
SCCF RECON,ioos:station:SCCF:16:1,2009-02-07T03:00:00Z,26.4345,-81.9647,2.767,35.16,1111122 
SCCF RECON,ioos:station:SCCF:16:1,2009-02-07T04:00:00Z,26.4345,-81.9647,2.715,35.16,1111122 
SCCF RECON,ioos:station:SCCF:16:1,2009-02-07T05:00:00Z,26.4345,-81.9647,2.519,35.01,1111122 
SCCF RECON,ioos:station:SCCF:16:1,2009-02-07T06:00:00Z,26.4345,-81.9647,2.268,34.93,1111122 
SCCF RECON,ioos:station:SCCF:16:1,2009-02-07T07:00:00Z,26.4345,-81.9647,2.004,34.66,1111122 
SCCF RECON,ioos:station:SCCF:16:1,2009-02-07T08:00:00Z,26.4345,-81.9647,1.759,34.38,1111122 
SCCF RECON,ioos:station:SCCF:16:1,2009-02-07T09:00:00Z,26.4345,-81.9647,1.619,34.28,1111122 
SCCF RECON,ioos:station:SCCF:16:1,2009-02-07T10:00:00Z,26.4345,-81.9647,1.583,34.03,1111122 
SCCF RECON,ioos:station:SCCF:16:1,2009-02-07T11:00:00Z,26.4345,-81.9647,1.714,33.65,1111122 
SCCF RECON,ioos:station:SCCF:16:1,2009-02-07T12:00:00Z,26.4345,-81.9647,1.971,33.61,1111122 
SCCF RECON,ioos:station:SCCF:16:1,2009-02-07T13:00:00Z,26.4345,-81.9647,2.179,33.8,1111122 
SCCF RECON,ioos:station:SCCF:16:1,2009-02-07T14:00:00Z,26.4345,-81.9647,2.339,34.36,1111122 
SCCF RECON,ioos:station:SCCF:16:1,2009-02-07T15:00:00Z,26.4345,-81.9647,2.484,34.7,1111122 
SCCF RECON,ioos:station:SCCF:16:1,2009-02-07T16:00:00Z,26.4345,-81.9647,2.559,34.94,1111122 
SCCF RECON,ioos:station:SCCF:16:1,2009-02-07T17:00:00Z,26.4345,-81.9647,2.575,34.86,1111122 
SCCF RECON,ioos:station:SCCF:16:1,2009-02-07T18:00:00Z,26.4345,-81.9647,2.509,34.77,1111122 
SCCF RECON,ioos:station:SCCF:16:1,2009-02-07T19:00:00Z,26.4345,-81.9647,2.423,34.63,1111122 
SCCF RECON,ioos:station:SCCF:16:1,2009-02-07T20:00:00Z,26.4345,-81.9647,2.368,34.46,1111122 
SCCF RECON,ioos:station:SCCF:16:1,2009-02-07T21:00:00Z,26.4345,-81.9647,2.352,34.3,1111122 
SCCF RECON,ioos:station:SCCF:16:1,2009-02-07T22:00:00Z,26.4345,-81.9647,2.354,34.24,1111122 
SCCF RECON,ioos:station:SCCF:16:1,2009-02-07T23:00:00Z,26.4345,-81.9647,2.464,34.3,1111122 
SCCF RECON,ioos:station:SCCF:16:1,2009-02-08T00:00:00Z,26.4345,-81.9647,2.594,34.55,1111122 
SCCF RECON,ioos:station:SCCF:16:1,2009-02-08T01:00:00Z,26.4345,-81.9647,2.719,34.86,1111122 
SCCF RECON,ioos:station:SCCF:16:1,2009-02-08T02:00:00Z,26.4345,-81.9647,2.804,35.0,1111122 
SCCF RECON,ioos:station:SCCF:16:1,2009-02-08T03:00:00Z,26.4345,-81.9647,2.843,35.03,1111122 
SCCF RECON,ioos:station:SCCF:16:1,2009-02-08T04:00:00Z,26.4345,-81.9647,2.851,35.06,1111122 
SCCF RECON,ioos:station:SCCF:16:1,2009-02-08T05:00:00Z,26.4345,-81.9647,2.744,35.08,1111122 
SCCF RECON,ioos:station:SCCF:16:1,2009-02-08T06:00:00Z,26.4345,-81.9647,2.507,35.02,1111122 
SCCF RECON,ioos:station:SCCF:16:1,2009-02-08T07:00:00Z,26.4345,-81.9647,2.232,34.92,1111122 
SCCF RECON,ioos:station:SCCF:16:1,2009-02-08T08:00:00Z,26.4345,-81.9647,1.969,34.66,1111122 
SCCF RECON,ioos:station:SCCF:16:1,2009-02-08T09:00:00Z,26.4345,-81.9647,1.714,34.27,1111122 
SCCF RECON,ioos:station:SCCF:16:1,2009-02-08T10:00:00Z,26.4345,-81.9647,1.546,34.32,1111122 
SCCF RECON,ioos:station:SCCF:16:1,2009-02-08T11:00:00Z,26.4345,-81.9647,1.539,34.4,1111122 
SCCF RECON,ioos:station:SCCF:16:1,2009-02-08T12:00:00Z,26.4345,-81.9647,1.712,34.23,1111122 
SCCF RECON,ioos:station:SCCF:16:1,2009-02-08T13:00:00Z,26.4345,-81.9647,1.992,33.94,1111122 
SCCF RECON,ioos:station:SCCF:16:1,2009-02-08T14:00:00Z,26.4345,-81.9647,2.18,34.12,1111122 
SCCF RECON,ioos:station:SCCF:16:1,2009-02-08T15:00:00Z,26.4345,-81.9647,2.337,34.56,1111122 
SCCF RECON,ioos:station:SCCF:16:1,2009-02-08T16:00:00Z,26.4345,-81.9647,2.49,34.82,1111122 
SCCF RECON,ioos:station:SCCF:16:1,2009-02-08T17:00:00Z,26.4345,-81.9647,2.546,34.93,1111122 
SCCF RECON,ioos:station:SCCF:16:1,2009-02-08T18:00:00Z,26.4345,-81.9647,2.478,34.86,1111122 
SCCF RECON,ioos:station:SCCF:16:1,2009-02-08T19:00:00Z,26.4345,-81.9647,2.339,34.53,1111122 
SCCF RECON,ioos:station:SCCF:16:1,2009-02-08T20:00:00Z,26.4345,-81.9647,2.255,34.4,1111122 
SCCF RECON,ioos:station:SCCF:16:1,2009-02-08T21:00:00Z,26.4345,-81.9647,2.254,34.19,1111122 
SCCF RECON,ioos:station:SCCF:16:1,2009-02-08T22:00:00Z,26.4345,-81.9647,2.235,34.09,1111122 
SCCF RECON,ioos:station:SCCF:16:1,2009-02-08T23:00:00Z,26.4345,-81.9647,2.254,34.04,1111122 
SCCF RECON,ioos:station:SCCF:16:1,2009-02-09T00:00:00Z,26.4345,-81.9647,2.397,34.09,1111122 
SCCF RECON,ioos:station:SCCF:16:1,2009-02-09T01:00:00Z,26.4345,-81.9647,2.591,34.17,1111122 
SCCF RECON,ioos:station:SCCF:16:1,2009-02-09T02:00:00Z,26.4345,-81.9647,2.694,34.55,1111122 
SCCF RECON,ioos:station:SCCF:16:1,2009-02-09T03:00:00Z,26.4345,-81.9647,2.763,34.77,1111122 
SCCF RECON,ioos:station:SCCF:16:1,2009-02-09T04:00:00Z,26.4345,-81.9647,2.848,34.89,1111122 
SCCF RECON,ioos:station:SCCF:16:1,2009-02-09T05:00:00Z,26.4345,-81.9647,2.875,34.98,1111122 
SCCF RECON,ioos:station:SCCF:16:1,2009-02-09T06:00:00Z,26.4345,-81.9647,2.734,35.01,1111122 
SCCF RECON,ioos:station:SCCF:16:1,2009-02-09T07:00:00Z,26.4345,-81.9647,2.473,34.97,1111122 
SCCF RECON,ioos:station:SCCF:16:1,2009-02-09T08:00:00Z,26.4345,-81.9647,2.247,34.85,1111122 
SCCF RECON,ioos:station:SCCF:16:1,2009-02-09T09:00:00Z,26.4345,-81.9647,1.98,34.55,1111122 
SCCF RECON,ioos:station:SCCF:16:1,2009-02-09T10:00:00Z,26.4345,-81.9647,1.718,34.28,1111122 
SCCF RECON,ioos:station:SCCF:16:1,2009-02-09T11:00:00Z,26.4345,-81.9647,1.618,34.14,1111122 
SCCF RECON,ioos:station:SCCF:16:1,2009-02-09T12:00:00Z,26.4345,-81.9647,1.661,34.4,1111122 
SCCF RECON,ioos:station:SCCF:16:1,2009-02-09T13:00:00Z,26.4345,-81.9647,1.93,34.48,1111122 
SCCF RECON,ioos:station:SCCF:16:1,2009-02-09T14:00:00Z,26.4345,-81.9647,2.207,34.95,1111122 
SCCF RECON,ioos:station:SCCF:16:1,2009-02-09T15:00:00Z,26.4345,-81.9647,2.362,34.74,1111122 
SCCF RECON,ioos:station:SCCF:16:1,2009-02-09T16:00:00Z,26.4345,-81.9647,2.497,34.77,1111122 
SCCF RECON,ioos:station:SCCF:16:1,2009-02-09T17:00:00Z,26.4345,-81.9647,2.611,34.78,1111122 
SCCF RECON,ioos:station:SCCF:16:1,2009-02-09T18:00:00Z,26.4345,-81.9647,2.658,34.88,1111122 
SCCF RECON,ioos:station:SCCF:16:1,2009-02-09T19:00:00Z,26.4345,-81.9647,2.56,34.87,1111122 
SCCF RECON,ioos:station:SCCF:16:1,2009-02-09T20:00:00Z,26.4345,-81.9647,2.398,34.65,1111122 
SCCF RECON,ioos:station:SCCF:16:1,2009-02-09T21:00:00Z,26.4345,-81.9647,2.282,34.55,1111122 
SCCF RECON,ioos:station:SCCF:16:1,2009-02-09T22:00:00Z,26.4345,-81.9647,2.203,34.54,1111122 
SCCF RECON,ioos:station:SCCF:16:1,2009-02-09T23:00:00Z,26.4345,-81.9647,2.19,34.43,1111122 
SCCF RECON,ioos:station:SCCF:16:1,2009-02-10T00:00:00Z,26.4345,-81.9647,2.272,34.44,1111122 
SCCF RECON,ioos:station:SCCF:16:1,2009-02-10T01:00:00Z,26.4345,-81.9647,2.4,34.45,1111122 
SCCF RECON,ioos:station:SCCF:16:1,2009-02-10T02:00:00Z,26.4345,-81.9647,2.587,34.43,1111122 
SCCF RECON,ioos:station:SCCF:16:1,2009-02-10T03:00:00Z,26.4345,-81.9647,2.724,34.39,1111122 
SCCF RECON,ioos:station:SCCF:16:1,2009-02-10T04:00:00Z,26.4345,-81.9647,2.807,34.53,1111122 
SCCF RECON,ioos:station:SCCF:16:1,2009-02-10T05:00:00Z,26.4345,-81.9647,2.864,34.66,1111122 
SCCF RECON,ioos:station:SCCF:16:1,2009-02-10T06:00:00Z,26.4345,-81.9647,2.833,34.82,1111122 
SCCF RECON,ioos:station:SCCF:16:1,2009-02-10T07:00:00Z,26.4345,-81.9647,2.676,34.83,1111122 
SCCF RECON,ioos:station:SCCF:16:1,2009-02-10T08:00:00Z,26.4345,-81.9647,2.449,34.73,1111122 
SCCF RECON,ioos:station:SCCF:16:1,2009-02-10T09:00:00Z,26.4345,-81.9647,2.197,34.53,1111122 
SCCF RECON,ioos:station:SCCF:16:1,2009-02-10T10:00:00Z,26.4345,-81.9647,1.974,34.3,1111122 
SCCF RECON,ioos:station:SCCF:16:1,2009-02-10T11:00:00Z,26.4345,-81.9647,1.761,34.45,1111122 
SCCF RECON,ioos:station:SCCF:16:1,2009-02-10T12:00:00Z,26.4345,-81.9647,1.711,34.74,1111122 
SCCF RECON,ioos:station:SCCF:16:1,2009-02-10T13:00:00Z,26.4345,-81.9647,1.861,34.97,1111122 
SCCF RECON,ioos:station:SCCF:16:1,2009-02-10T14:00:00Z,26.4345,-81.9647,2.131,34.92,1111122 
SCCF RECON,ioos:station:SCCF:16:1,2009-02-10T15:00:00Z,26.4345,-81.9647,2.401,35.02,1111122 
SCCF RECON,ioos:station:SCCF:16:1,2009-02-10T16:00:00Z,26.4345,-81.9647,2.563,34.95,1111122 
SCCF RECON,ioos:station:SCCF:16:1,2009-02-10T17:00:00Z,26.4345,-81.9647,2.646,34.9,1111122 
SCCF RECON,ioos:station:SCCF:16:1,2009-02-10T18:00:00Z,26.4345,-81.9647,2.67,34.74,1111122 
SCCF RECON,ioos:station:SCCF:16:1,2009-02-10T19:00:00Z,26.4345,-81.9647,2.647,34.8,1111122 
SCCF RECON,ioos:station:SCCF:16:1,2009-02-10T20:00:00Z,26.4345,-81.9647,2.539,34.71,1111122 
SCCF RECON,ioos:station:SCCF:16:1,2009-02-10T21:00:00Z,26.4345,-81.9647,2.404,34.68,1111122 
SCCF RECON,ioos:station:SCCF:16:1,2009-02-10T22:00:00Z,26.4345,-81.9647,2.298,34.52,1111122 
SCCF RECON,ioos:station:SCCF:16:1,2009-02-10T23:00:00Z,26.4345,-81.9647,2.209,34.61,1111122 
SCCF RECON,ioos:station:SCCF:16:1,2009-02-11T00:00:00Z,26.4345,-81.9647,2.146,34.59,1111122 
SCCF RECON,ioos:station:SCCF:16:1,2009-02-11T01:00:00Z,26.4345,-81.9647,2.206,34.72,1111122 
SCCF RECON,ioos:station:SCCF:16:1,2009-02-11T02:00:00Z,26.4345,-81.9647,2.4,34.79,1111122 
SCCF RECON,ioos:station:SCCF:16:1,2009-02-11T03:00:00Z,26.4345,-81.9647,2.62,34.81,1111122 
SCCF RECON,ioos:station:SCCF:16:1,2009-02-11T04:00:00Z,26.4345,-81.9647,2.804,34.64,1111122 
SCCF RECON,ioos:station:SCCF:16:1,2009-02-11T05:00:00Z,26.4345,-81.9647,2.905,34.6,1111122 
SCCF RECON,ioos:station:SCCF:16:1,2009-02-11T06:00:00Z,26.4345,-81.9647,2.934,34.68,1111122 
SCCF RECON,ioos:station:SCCF:16:1,2009-02-11T07:00:00Z,26.4345,-81.9647,2.875,34.72,1111122 
SCCF RECON,ioos:station:SCCF:16:1,2009-02-11T08:00:00Z,26.4345,-81.9647,2.683,34.7,1111122 
SCCF RECON,ioos:station:SCCF:16:1,2009-02-11T09:00:00Z,26.4345,-81.9647,2.46,34.6,1111122 
SCCF RECON,ioos:station:SCCF:16:1,2009-02-11T10:00:00Z,26.4345,-81.9647,2.275,34.52,1111122 
SCCF RECON,ioos:station:SCCF:16:1,2009-02-11T11:00:00Z,26.4345,-81.9647,2.103,34.55,1111122 
SCCF RECON,ioos:station:SCCF:16:1,2009-02-11T12:00:00Z,26.4345,-81.9647,1.967,34.69,1111122 
SCCF RECON,ioos:station:SCCF:16:1,2009-02-11T13:00:00Z,26.4345,-81.9647,1.94,34.83,1111122 
SCCF RECON,ioos:station:SCCF:16:1,2009-02-11T14:00:00Z,26.4345,-81.9647,2.108,34.92,1111122 
SCCF RECON,ioos:station:SCCF:16:1,2009-02-11T15:00:00Z,26.4345,-81.9647,2.401,34.89,1111122 
SCCF RECON,ioos:station:SCCF:16:1,2009-02-11T16:00:00Z,26.4345,-81.9647,2.67,34.86,1111122 